Flag for Norway Weather past 2 weeks in Brumunddal, Norway

Now
33 °F

Chilly.


Feels Like: 33 °F
Forecast: 22 / 34 °F
Wind: 1 mph from Northeast

Location: Lillehammer-Saetherengen

Current Time: Mar 3, 2015 at 12:50:27 AM

Latest Report: Mar 3, 2015 at 12:00 AM


Visibility: N/A

Pressure: 29.32 "Hg

Humidity: 94%

Dew point: 32 °F

Location of BrumunddalLocation

Historic Weather in Brumunddal — Graph

°F

Brumunddal temperature yesterday

Maximum temperature yesterday: 38 °F (at 4:00 PM)
Minimum temperature yesterday: 33 °F (at 10:00 PM)
Average temperature yesterday: 36 °F

Past Weeks' High & Low Weather Summary

 TemperatureHumidityPressure
High49 °F (Feb 19, 2:00 PM)98% (Feb 25, 7:00 AM)30.48 "Hg (Feb 25, 7:00 AM)
Low17 °F (Feb 22, 10:00 PM)41% (Feb 20, 2:00 PM)28.91 "Hg (Mar 1, 8:00 PM)
Average33 °F85%29.52 "Hg
* Reported Feb 15 11:00 PM — Mar 2 11:00 PM, Brumunddal, Weather by CustomWeather, © 2015

Note: Actual official high and low records may vary slightly from our data, if they occured in-between our weather recording intervals... More about our weather records

Advertising

Brumunddal weather history for previous 24 hours

 ConditionsComfort  
Time TempWeatherWind HumidityBarometerVisibility
11:00 PM
Mon, Mar 2
33 °FChilly.1 mph94%29.29 "HgN/A
10:00 PM33 °FChilly.1 mph93%29.26 "HgN/A
9:00 PM34 °FChilly.1 mph91%29.26 "HgN/A
8:00 PM34 °FChilly.1 mph90%29.23 "HgN/A
7:00 PM35 °FChilly.1 mph86%29.21 "HgN/A
6:00 PM36 °FChilly.1 mph83%29.18 "HgN/A
5:00 PM37 °FChilly.1 mph82%29.15 "HgN/A
4:00 PM38 °FChilly.1 mph79%29.15 "HgN/A
3:00 PM37 °FChilly.6 mph83%29.12 "HgN/A
2:00 PM37 °FChilly.3 mph85%29.09 "HgN/A
1:00 PM38 °FChilly.5 mph78%29.09 "HgN/A
12:00 PM37 °FChilly.3 mph82%29.06 "HgN/A
11:00 AM37 °FChilly.2 mph82%29.06 "HgN/A
10:00 AM36 °FChilly.3 mph85%29.06 "HgN/A
9:00 AM35 °FChilly.1 mph93%29.03 "HgN/A
8:00 AM34 °FChilly.1 mph92%29.03 "HgN/A
7:00 AM35 °FChilly.2 mph91%29.00 "HgN/A
6:00 AM34 °FChilly.1 mph92%29.00 "HgN/A
5:00 AM36 °FChilly.3 mph87%28.97 "HgN/A
4:00 AM36 °FChilly.3 mph88%28.97 "HgN/A
3:00 AM36 °FChilly.3 mph90%28.97 "HgN/A
2:00 AM34 °FChilly.1 mph93%28.97 "HgN/A
1:00 AM35 °FChilly.2 mph91%28.94 "HgN/A
12:00 AM35 °FChilly.5 mph92%28.94 "HgN/A
Weather by CustomWeather, © 2015

See weather overviewHow to use our weather pages